Location: Unspecified
(0.0000°N, 0.0000°E)
Time: 20:18:31
(UTC+00:00)

Cosmos 1943 - Pass Details

Date: 27 January 2013
Orbit: 835 x 849 km, 71.0° (Epoch: 30 September)

Event Time Altitude Azimuth Distance (km) Brightness Sun altitude
Rises 18:26:44 0° 339° (NNW) 3,402 6.4 -3.3°
Reaches altitude 10° 18:29:11 10° 336° (NNW) 2,469 5.7 -3.9°
Maximum altitude 18:34:48 65° 255° (WSW) 933 3.8 -5.2°
Drops below altitude 10° 18:40:26 10° 174° (S) 2,473 5.8 -6.5°
Sets 18:42:54 0° 171° (S) 3,408 6.5 -7.1°
